Tracking 18843 objects as of 20-November-2017
HD Live streaming from Space Station
objects crossing your sky now

FENGYUN 1C DEB

Track FENGYUN 1C DEB now!
10-day predictions


NORAD ID: 37475
Int'l Code: 1999-025EJV
Perigee: 744.1 km
Apogee: 909.4 km
Inclination: 98.9 °
Period: 101.3 minutes
Semi major axis: 7197 km
RCS: 0.0012 m2 (small)
Launch date: May 10, 1999
Source: People's Republic of China (PRC)
Launch site: Taiyaun Space Center, China (TSC)

Note: This is SATELLITE DEBRIS
aabbcc
Your satellite tracking list
Your tracking list is empty




NASA's NSSDC Master Catalog

Two Line Element Set (TLE):
1 37475U 99025EJV 17315.44723376  .00001215  00000-0  53629-3 0  9991
2 37475  98.9217  35.7313 0114840  42.6572 318.3452 14.21688634420139
Source of the keplerian elements: AFSPC